THORAD DELTA 1 DEB, 8437

Orbit data source: Space-Track

THORAD DELTA 1 DEB, 8437 is space debris in SSO originally from a launch on Fri, 15 Nov 1974 UTC launched from the Air Force Western Test Range (AFWTR). Debris objects in space refer to the collection of defunct objects orbiting the Earth. Examples of debris include non-operational satellites, rocket bodies, and fragments generated from explosions, collisions, or faulty payload assembly.

Loading next visibility...
Identifier
8437, 1974-089CN
Orbit
SSO
Country
Flag of USUS
Related business
Manufacturer
Unknown
Mission
Spacecraft
Bus & Motor
Unknown
Mass
Unknown
Launch date (UTC)
1974-11-15 (51 years ago)
Launch vehicle
Unknown
Launch site
Air Force Western Test Range (AFWTR)
Object type
Payload
Rocket body
Debris
Shape & HBR
Unknown shape, 0.1 m
Radar Cross Section
Small (<0.1 m²)

Expand to show TLE details & history
Last TLE update: 16 hours ago

TLE from 16 hours ago
0 THORAD DELTA 1 DEB
1  8437U 74089CN  26070.95136205  .00000019  00000-0  38567-3 0  9998
2  8437 101.9161  72.2035 0043873 312.2215  76.0253 12.58330383356310
Epoch: 2026-03-11T22:49Z
TLE epoch observation values (Epoch: 2026-03-11T22:49:57.681Z)
Latitude
28.10259°
Longitude
-86.33342°
Altitude
1,424.879 km
Speed
7.155 km/s
True Right ascension
04h 23m 03s
True Declination
27° 58' 20"
Sunlit
Object was in daylight at epoch
Visualization orbit readout
Latitude
Unknown
Longitude
Unknown
Altitude
Unknown
Speed
Unknown
Apparent Right ascension
Unknown
Apparent Declination
Unknown
Sunlit
N/A
Visualization observer readout
Local Sidereal Time
18:53:01
Azimuth
Unknown
Elevation
Unknown
Doppler factor
Unknown
Orbital elements
Apogee altitude
1,461.634 km
Perigee altitude
1,393.144 km
Semi-major axis
7,805.526 km
Eccentricity
0.00439
Inclination
101.9161°
RAAN
72.2035°
Arg. of periapsis
312.2215°
True anomaly
76.51381°
Mean anomaly
76.0253°
Eccentric anomaly
76.26949°
Mean motion
3.14731 °/min
Orbital period
114.38 mins
BSTAR
0.00038567
Loading maneuver chart data...
Computing Atmospheric mass density...

Documentation

Showing up to 5 results
|